Location: Woodhurst
(52.3667°N, 0.0667°W)
Time: 15:23:23
(UTC+00:00)

Cosmos 1535 Rocket - Pass Details

Date: 19 May 2025
Orbit: 947 x 1004 km, 83.0° (Epoch: 18 June)

Event Time Altitude Azimuth Distance (km) Brightness Sun altitude
Rises 23:10:44 0° 349° (N) 3,732 9.4 -17.0°
Reaches altitude 10° 23:13:17 10° 349° (N) 2,773 8.2 -17.0°
Maximum altitude 23:19:41 87° 261° (W) 995 4.5 -17.2°
Enters shadow 23:23:19 27° 174° (S) 1,779 5.3 -17.3°
